This demonstration page uses our WeatherBlox Daily Observations layout. Learn more.

Left ArrowRight Arrow

Hourly Observations for March 19, 2019

Temp ( °F °C ) Dew Point ( °F °C ) Humidity (%) Winds ( mph kmh ) Pressure ( in mb ) Visibility ( mi km ) Precip ( " mm )
12:57 am 00:57 Cloudy 37 2.8 32 0 82 82 E 9 15 30.28 1026 10 16 0.00 0.00
1:57 am 01:57 Cloudy 37 2.8 30 -1.1 76 76 ESE 9 15 30.26 1025 10 16 0.00 0.00
2:57 am 02:57 Cloudy with Light Rain 37 2.8 29 -1.7 73 73 SE 12 19 30.24 1024 10 16 0.00 0.03
3:57 am 03:57 Cloudy with Light Rain 37 2.8 31 -0.6 79 79 ESE 6 9 30.23 1024 10 16 0.00 0.03
4:57 am 04:57 Cloudy with Light Snow 35 1.7 32 0 89 89 E 9 15 30.19 1023 7 11 0.03 0.76
5:40 am 05:40 Cloudy with Light Snow 36 2 34 1 93 93 NE 8 13 30.24 1024 9 14 0.02 0.51
5:52 am 05:52 Cloudy with Light Snow 36 2 34 1 93 93 ENE 10 17 30.23 1024 6 10 0.03 0.76
5:57 am 05:57 Cloudy with Light Snow 35 1.7 33 0.6 93 93 ENE 9 15 30.19 1023 5 8 0.04 1.02
6:57 am 06:57 Cloudy with Light Rain 35 1.7 34 1.1 96 96 NE 8 13 30.21 1023 8 13 0.01 0.25
7:10 am 07:10 Cloudy with Light Snow 36 2 34 1 93 93 NE 8 13 30.25 1024 5 8 0.01 0.25
7:46 am 07:46 Cloudy with Light Snow 34 1 34 1 100 100 N 7 11 30.28 1025 4 6 0.04 1.02
7:57 am 07:57 Cloudy with Light Snow 34 1.1 33 0.6 97 97 N 8 13 30.24 1024 4 6 0.05 1.27
8:42 am 08:42 Cloudy with Light Snow 34 1 34 1 100 100 NNE 8 13 30.29 1026 3 5 0.00 0.00
8:53 am 08:53 Cloudy with Light Snow 34 1 34 1 100 100 NNE 8 13 30.29 1026 3 4 0.04 1.02
8:57 am 08:57 Cloudy with Light Snow 33 0.6 33 0.6 100 100 NNE 8 13 30.26 1025 3 4 0.04 1.02
9:21 am 09:21 Cloudy with Light Snow 34 1 34 1 100 100 NE 7 11 30.29 1026 2 3 0.02 0.51
9:53 am 09:53 Cloudy with Light Snow 34 1 34 1 100 100 ENE 9 15 30.30 1026 3 5 0.00 0.00
9:57 am 09:57 Cloudy with Light Snow 34 1.1 34 1.1 100 100 E 9 15 30.25 1025 3 5 0.04 1.02
10:14 am 10:14 Cloudy with Light Snow 34 1 34 1 100 100 E 10 17 30.30 1026 3 5 0.01 0.25
10:57 am 10:57 Cloudy with Light Rain 35 1.7 35 1.7 100 100 E 12 19 30.26 1025 6 10 0.04 1.02
11:09 am 11:09 Cloudy with Light Rain 36 2 36 2 100 100 E 13 20 30.29 1026 6 10 0.00 0.03
11:57 am 11:57 Cloudy with Light Rain 37 2.8 35 1.7 93 93 E 10 17 30.25 1024 10 16 0.01 0.25
12:07 pm 12:07 Cloudy with Light Rain 37 3 36 2 93 93 E 10 17 30.27 1025 10 16 0.00 0.00
12:57 pm 12:57 Cloudy with Light Rain 37 2.8 36 2.2 96 96 E 8 13 30.26 1025 10 16 0.00 0.03
1:32 pm 13:32 Cloudy 37 3 36 2 93 93 E 8 13 30.27 1025 10 16 0.00 0.03
1:57 pm 13:57 Cloudy 39 3.9 37 2.8 93 93 E 6 9 30.25 1024 10 16 0.00 0.03
2:57 pm 14:57 Cloudy with Light Rain 39 3.9 37 2.8 93 93 N 7 11 30.24 1024 6 10 0.00 0.03
3:57 pm 15:57 Cloudy 39 3.9 38 3.3 96 96 N 8 13 30.24 1024 7 11 0.00 0.03
4:57 pm 16:57 Cloudy with Mist and Fog 39 3.9 37 2.8 93 93 N 10 17 30.24 1024 6 10 0.00 0.00
5:25 pm 17:25 Cloudy with Mist and Fog 39 4 37 3 93 93 N 9 15 30.27 1025 6 10 0.00 0.00
5:57 pm 17:57 Cloudy with Mist and Fog 39 3.9 37 2.8 93 93 N 8 13 30.24 1024 6 10 0.00 0.00
6:07 pm 18:07 Cloudy with Mist and Fog 37 3 37 3 100 100 N 9 15 30.27 1025 4 6 0.00 0.00
6:57 pm 18:57 Cloudy with Light Rain 38 3.3 37 2.8 97 97 N 8 13 30.26 1025 5 8 0.00 0.03
7:06 pm 19:06 Cloudy with Light Rain 37 3 37 3 100 100 N 7 11 30.28 1026 5 8 0.00 0.00
7:17 pm 19:17 Cloudy 37 3 37 3 100 100 NNW 7 11 30.28 1026 9 14 0.00 0.03
7:57 pm 19:57 Cloudy with Light Rain 38 3.3 37 2.8 97 97 NNW 6 9 30.27 1025 4 6 0.00 0.03
8:57 pm 20:57 Cloudy with Light Rain 38 3.3 37 2.8 97 97 NNW 5 7 30.28 1025 10 16 0.00 0.03
9:57 pm 21:57 Cloudy 38 3.3 37 2.8 97 97 NNW 6 9 30.28 1025 10 16 0.00 0.03
10:28 pm 22:28 Cloudy 37 3 36 2 93 93 N 7 11 30.29 1026 10 16 0.00 0.00
10:57 pm 22:57 Cloudy 38 3.3 36 2.2 93 93 N 10 17 30.27 1025 10 16 0.00 0.00
11:32 pm 23:32 Cloudy 37 3 36 2 93 93 N 14 22 30.30 1026 10 16 0.00 0.00
11:47 pm 23:47 Cloudy 37 3 36 2 93 93 N 10 17 30.31 1027 10 16 0.00 0.00
11:57 pm 23:57 Cloudy 36 2.2 35 1.7 97 97 NNW 12 19 30.29 1026 10 16 0.00 0.00

Powered by AerisWeather